Regional Weather Roundup
Issued by NWS Northern Indiana

Home | Current Version | Previous Version | Text Only | Print | Product List | Glossary On
Versions: 1 2 3 4 5 6 7 8 9 10 11 12 13 14 15 16 17 18 19 20 21 22 23 24 25 26 27 28 29 30 31 32 33 34 35 36 37 38 39 40 41 42 43 44 45 46 47 48 49 50
000
ASUS43 KIWX 301710
RWRIWX

KIWX WEATHER ROUNDUP
NATIONAL WEATHER SERVICE NORTHERN INDIANA
100 PM EDT WED JUL 30 2014

NOTE: "FAIR" INDICATES FEW OR NO CLOUDS BELOW 12,000 FEET WITH NO
SIGNIFICANT WEATHER AND/OR OBSTRUCTIONS TO VISIBILITY.

* THESE STATIONS ARE NOT UNDER NWS QUALITY CONTROL. THEY ALSO MAY NOT
  REPORT WEATHER SUCH AS PRECIPITATION OR FOG.

INZ001>027-301800-
NORTHERN INDIANA

CITY           SKY/WX    TMP DP  RH WIND       PRES   REMARKS
GARY*          MOSUNNY   73  57  56 VRB7      30.05F
VALPARAISO     FAIR      74  58  57 CALM      30.06S
MICHIGAN CITY* FAIR      70  55  60 W7        30.06S
LAPORTE*       FAIR      72  58  60 W6        30.06S
KNOX*          CLOUDY    73  57  56 NW8       30.04F
SOUTH BEND     FAIR      73  56  54 W13G20    30.05S
GOSHEN         PTSUNNY   73  58  59 SW15      30.04F
MONTICELLO*    FAIR      73  60  65 W6        30.05S
LOGANSPORT*    FAIR      72  61  68 W6        30.07S
ROCHESTER*     FAIR      77  57  50 W9G16     30.06S
WARSAW*        PTSUNNY   70  57  64 W8        30.06S
ANGOLA*        MOSUNNY   75  59  57 W9        30.03S
FORT WAYNE     PTSUNNY   72  58  61 W6        30.05F
HUNTINGTON*    CLOUDY    72  58  61 W6        30.05S
PERU/GRISSOM   FAIR      73  64  74 W7        30.06F
MARION*        CLOUDY    70  58  66 NW6       30.08S

$$
INZ028>050-301800-
CENTRAL INDIANA

CITY           SKY/WX    TMP DP  RH WIND       PRES   REMARKS
LAFAYETTE      FAIR      72  60  66 W5        30.06F
KOKOMO*        FAIR      72  61  68 W6        30.07S
MUNCIE*        FAIR      73  58  59 NW8       30.07S
INDIANAPOLIS   PTSUNNY   76  61  59 W12       30.06F

$$
MIZ043>046-050>051-056>058-064>065-071>073-077>080-301800-
SOUTHWEST LOWER MICHIGAN

CITY           SKY/WX    TMP DP  RH WIND       PRES   REMARKS
BATTLE CREEK   PTSUNNY   71  57  61 W9        30.03F
BENTON HARBOR  FAIR      68  59  73 W6        30.05R
COLDWATER*     PTSUNNY   76  57  50 W13G18    30.03S
HILLSDALE*     FAIR      73  57  58 W5        30.03S
HOLLAND        FAIR      70  60  70 W9        30.04S
GRAND RAPIDS   FAIR      73  58  59 NW9       30.03S
KALAMAZOO      PTSUNNY   73  56  54 W10       30.03S
STURGIS*       PTSUNNY   72  59  64 SW13      30.03S
THREE RIVERS*  PTSUNNY   74  59  59 NW9       30.04S

$$
OHZ001>008-015>018-024>025-301800-
NORTHWEST OHIO

CITY           SKY/WX    TMP DP  RH WIND       PRES   REMARKS
WAUSEON*       FAIR      75  57  53 W8G15     30.02S
DEFIANCE       PTSUNNY   72  57  59 VRB5      30.04S
FINDLAY        FAIR      73  59  61 W10       30.03S
TOLEDO EXPRESS PTSUNNY   75  57  53 SW7       30.02S
TOLEDO METCALF PTSUNNY   75  57  53 SW9       30.02F
LIMA           PTSUNNY   74  59  59 MISG      30.04F

$$
&&


USA.gov is the U.S. government's official web portal to all federal, state and local government web resources and services.